Terminal Aerodrome Forecast
Issued by NWS

Current Version | Previous Version | Graphics & Text | Print | Product List | Glossary On
Versions: 1 2 3 4 5 6 7 8 9 10 11 12 13 14 15 16 17 18 19 20 21 22 23 24 25 26 27 28 29 30 31 32 33 34 35 36 37 38 39 40 41 42 43 44 45 46
000
FTUS41 KRNK 161723
TAFLWB
TAF
KLWB 161723Z 1618/1718 24004KT P6SM SCT020 BKN045
     FM162000 27007G14KT P6SM OVC025
     FM170000 28008KT P6SM OVC018
     FM171000 VRB04KT 4SM BR OVC005
     FM171400 29013G20KT P6SM SCT010 OVC018=

USA.gov is the U.S. government's official web portal to all federal, state and local government web resources and services.